Location: Unspecified
(0.0000°N, 0.0000°E)
Time: 00:24:49
(UTC+00:00)

IRIDIUM 33 DEB - Visible Passes

Search period start: 07 December 2025 00:00
Search period end: 17 December 2025 00:00
Orbit: 533 x 546 km, 86.4° (Epoch: 14 June)

Date Brightness Start Highest point End Pass type
(mag) Time Alt. Az. Time Alt. Az. Time Alt. Az.
13 Dec ? 19:19:56 10° SSE 19:19:58 10° SSE 19:19:58 10° SSE visible
14 Dec ? 20:22:09 10° SW 20:22:31 12° SW 20:22:31 12° SW visible
15 Dec ? 19:48:57 10° SSW 19:51:04 32° SSW 19:51:04 32° SSW visible
16 Dec ? 19:16:38 10° SSE 19:19:32 43° ESE 19:19:32 43° ESE visible
